Regional Weather Roundup
Issued by NWS

Home | Current Version | Previous Version | Text Only | Print | Product List | Glossary Off
Versions: 1 2 3 4 5 6 7 8 9 10 11 12 13 14 15 16 17 18 19 20 21 22 23 24 25 26 27 28 29 30 31 32 33 34 35 36 37 38 39 40 41 42 43 44 45 46 47 48 49 50

000
ASUS43 KIND 291859
RWRIN

WEATHER ROUNDUP FOR INDIANA
NATIONAL WEATHER SERVICE INDIANAPOLIS IN
300 PM EDT SUN MAY 29 2016

NOTE: "FAIR" INDICATES FEW OR NO CLOUDS BELOW 12,000 FEET WITH NO
SIGNIFICANT WEATHER AND/OR OBSTRUCTIONS TO VISIBILITY.

* - STATION DOES NOT REPORT WEATHER SUCH AS PRECIPITATION OR FOG.

+ - STATION NOT QUALITY CONTROLLED BY THE NATIONAL WEATHER SERVICE.
    USE DATA WITH CAUTION...ESPECIALLY DEWPOINT AND RELATIVE
    HUMIDITY OBSERVATIONS.

INZ001>003-010>013-019-020-292000-
NORTHWEST INDIANA

CITY           SKY/WX    TMP DP  RH WIND       PRES   REMARKS
GARY /AIRPORT/ MOSUNNY   81  64  57 W21       30.03R

$$

LMZ046-743>745-292000-
SOUTHERN LAKE MICHIGAN

STATION/POSITION TIME  TEMP    WIND        PRES    WAVE
                       AIR SEA DIR/SP/G            HT
                 (UTC) (F)     (DEG/KT/KT) (MB)    (FT)
BURNS HARBOR     1800   73     250/ 18/ 24 1016.6R
MICHIGAN CITY    1800   68     240/ 18/ 19   N/A
5NW MICH CITY    1800   65 57  280/ 10/ 14   N/A     1

$$

INZ004-005-014>016-021>024-292000-
NORTH CENTRAL INDIANA

CITY           SKY/WX    TMP DP  RH WIND       PRES   REMARKS
ELKHART        MOSUNNY   84  63  48 MISG      30.01S
GOSHEN         MOSUNNY   85  54  34 SW18G28   30.01S
SOUTH BEND     PTSUNNY   83  56  39 SW17G28   30.00F

$$

INZ006>009-017-018-025>027-292000-
NORTHEAST INDIANA

CITY           SKY/WX    TMP DP  RH WIND       PRES   REMARKS
ANGOLA *+        N/A     88  82  84 SW16      30.01S HX 108
FORT WAYNE     PTSUNNY   88  60  38 W17G25    30.02S

$$

INZ028-029-035-036-043>045-051>053-292000-
WEST CENTRAL INDIANA

CITY           SKY/WX    TMP DP  RH WIND       PRES   REMARKS
CRAWFORDSVL +  MOSUNNY   82  58  44 W16G23    30.06F
GREENCASTLE +  MOSUNNY   82  68  61 W3        30.07F
LAFAYETTE      MOSUNNY   83  56  39 SW12G20   30.03F
TERRE HAUTE    MOSUNNY   85  63  47 W10       30.06F

$$

INZ030>032-037>040-046>048-054>057-064-065-292000-
CENTRAL INDIANA

CITY           SKY/WX    TMP DP  RH WIND       PRES   REMARKS
COLUMBUS       MOSUNNY   86  63  45 W12       30.06F
INDIANAPOLIS   CLOUDY    84  63  49 SW12G20   30.04F
-EAGLE CREEK   MOSUNNY   83  60  45 W12G17    30.05S
KOKOMO *+      PTSUNNY   84  61  45 SW16      30.03F
SHELBYVILLE    PTSUNNY   86  62  44 W14G21    30.05F

$$

INZ033-034-041-042-049-050-058-059-292000-
EAST CENTRAL INDIANA

CITY           SKY/WX    TMP DP  RH WIND       PRES   REMARKS
MUNCIE         PTSUNNY   86  59  39 SW12      30.04F

$$

INZ060-061-067>069-081>083-085>088-292000-
SOUTHWEST INDIANA

CITY           SKY/WX    TMP DP  RH WIND       PRES   REMARKS
EVANSVILLE     MOSUNNY   85  66  53 SW9       30.07F
HUNTINGBURG *+ SUNNY     84  66  54 W9        30.07F

$$

INZ062-063-066-070>080-084-089>092-292000-
SOUTH CENTRAL AND SOUTHEAST INDIANA

CITY           SKY/WX    TMP DP  RH WIND       PRES   REMARKS
BLOOMINGTON    PTSUNNY   84  65  52 SW8       30.06F
MADISON *+     MOSUNNY   86  63  45 SW12      30.09F
SEYMOUR +      MOSUNNY   86  64  48 SW10      30.05F

$$





USA.gov is the U.S. government's official web portal to all federal, state and local government web resources and services.